User: anonymous   Login
Location: Cluny
(50.9333°N, 112.8167°W)
Time: 15:12:33
(UTC-07:00)
Language:

Hamsat - Orbit

View from above orbital plane
View from above orbital plane
View from above satellite
View from above satellite

Ground track
Ground track

The orbit data is extracted from the following two-line orbital elements,

1 28650U 05017B   17017.92173258 +.00000213 +00000-0 +28604-4 0  9997
2 28650 097.6331 357.5312 0022074 268.2350 091.6340 14.88538977633745
Epoch (UTC): 17 January 2017 22:07:17
Eccentricity: 0.0022074
inclination: 97.6331°
perigee height: 587 km
apogee height: 618 km
right ascension of ascending node: 357.5312°
argument of perigee: 268.2350°
revolutions per day: 14.88538977
mean anomaly at epoch: 91.6340°
orbit number at epoch: 63374

The dashed part of the orbit path shows where the satellite is in the earth's shadow,  

DLR